Regional Weather Roundup
Issued by NWS Cleveland, OH

Home | Current Version | Previous Version | Graphics & Text | Print | Product List | Glossary On
Versions: 1 2 3 4 5 6 7 8 9 10 11 12 13 14 15 16 17 18 19 20 21 22 23 24 25 26 27 28 29 30 31 32 33 34 35 36 37 38 39 40 41 42 43 44 45 46 47 48 49 50
000
ASUS41 KCLE 270310
RWRCLE
OHIO REGIONAL WEATHER ROUNDUP
NATIONAL WEATHER SERVICE CLEVELAND, OH
1100 PM EDT TUE JUL 26 2016

NOTE: "FAIR" INDICATES FEW OR NO CLOUDS BELOW 12,000 FEET WITH NO
SIGNIFICANT WEATHER AND/OR OBSTRUCTIONS TO VISIBILITY.

OHZ001>008-015>018-024>027-034-035-043-044-270400-
   NORTHWEST OHIO

CITY           SKY/WX    TMP DP  RH WIND       PRES   REMARKS
DEFIANCE       CLEAR     73  65  75 CALM      30.02R
FINDLAY        PTCLDY    76  59  55 CALM      30.01S
TOLEDO EXPRESS CLEAR     68  66  93 CALM      30.01S
TOLEDO EXEC    CLEAR     76  63  64 CALM      30.02R
LIMA           CLEAR     71  68  90 E6        30.03R
$$

OHZ009>014-019>023-028>033-038-089-270400-
   NORTHEAST OHIO

CITY           SKY/WX    TMP DP  RH WIND       PRES   REMARKS
CLE-HOPKINS    PTCLDY    76  59  55 CALM      30.04S
CLE-LAKEFRONT  CLEAR     76  64  66 CALM      30.00F
CUY CO. ARPT   CLEAR    N/A N/A N/A CALM      30.03S
LORAIN-ELYRIA  CLEAR     65  59  81 CALM      30.03S
ASHTABULA      CLEAR     62  61  96 CALM      30.03F
AKRON-CANTON   PTCLDY    69  57  65 NE7       30.03S
WOOSTER        CLEAR     65  58  78 CALM      30.04S
MANSFIELD      CLOUDY    74  59  59 NE3       30.04S
YOUNGSTOWN     PTCLDY    69  58  67 NE3       30.03F
$$

OHZ042-051>053-060>062-070>072-077>081-270400-
  SOUTHWEST OHIO

CITY           SKY/WX    TMP DP  RH WIND       PRES   REMARKS
CINC-COVINGTON CLOUDY    77  75  93 CALM      30.02S
CINC-LUNKEN    CLOUDY    78  76  93 CALM      30.01R
HAMILTON       MOCLDY    74  72  93 CALM      30.02R
DAYTON         PTCLDY    75  69  81 W3        30.03S
WRIGHT-PAT AFB MOCLDY    78  69  74 E1        30.02R
DAYTON GENERAL MOCLDY    77  69  76 CALM      30.02R
WILMINGTON     CLOUDY    74  73  97 S3        30.03R
$$

OHZ036-037-039>041-045>050-054>059-063>069-073>076-082>088-270400-
  CENTRAL AND SOUTHEAST OHIO

CITY           SKY/WX    TMP DP  RH WIND       PRES   REMARKS
COLUMBUS       CLOUDY    78  72  81 S5        30.00S
OSU AIRPORT    CLOUDY    76  69  79 NW5       30.01S
BOLTON FIELD   CLOUDY    74  73  95 SW5       30.02S
RICKENBACK AFB CLOUDY    75  71  87 S5        30.01S
NEWARK         CLOUDY    76  72  87 CALM      30.01R
MARION         CLOUDY    73  63  70 N3        30.04R
LANCASTER      CLOUDY    75  73  93 CALM      30.02S
ZANESVILLE     CLOUDY    77  72  84 SW5       30.01S
NEW PHILLY     CLOUDY    78  58  49 CALM      30.02R
$$



USA.gov is the U.S. government's official web portal to all federal, state and local government web resources and services.